Temp
9 8 8 8 8 8 8 8 8 7 7 6 6 6 6 6 6 5 5 4 4 4 4 4 4 4 4 3 3 3 3 3 3 4 4 4 4 4 4 4 4 4 4
9 8 8 8 8 8 7 7 7 7 6 6 6 6 5 5 5 5 4 4 4 4 4 4 4 3 3 3 3 3 2 2 2 3 3 3 4 4 3 3 3 4 4
8 9 8 8 8 7 7 7 7 6 6 6 5 5 5 5 4 4 4 4 4 4 3 4 3 3 3 3 3 3 2 2 2 2 2 3 3 3 3 3 3 3 3
9 9 8 8 8 7 7 6 6 6 6 5 5 5 5 4 4 4 4 4 4 3 3 3 3 3 3 2 2 3 2 2 2 2 2 1 2 3 3 3 3 2 2
9 9 8 8 7 7 7 6 6 5 5 5 5 4 4 4 3 3 3 3 3 3 3 3 2 2 2 2 2 2 2 2 1 1 2 2 1 1 2 3 2 2 3
9 8 8 7 7 6 6 6 5 5 4 4 4 4 4 3 3 3 2 2 2 2 2 2 2 2 2 2 2 2 1 1 1 1 1 1 1 1 2 2 2 2 2
8 8 7 6 6 6 5 5 4 4 4 4 3 3 3 3 2 2 2 2 1 1 1 1 1 1 1 1 1 1 1 1 1 1 1 1 1 0 0 1 1 2 2
8 7 6 6 5 5 5 4 4 4 4 3 3 3 2 2 2 2 1 1 1 1 1 0 0 0 0 0 0 1 1 0 1 0 0 0 0 0 0 0 0 1 1
6 6 5 5 5 4 4 4 3 3 3 3 3 2 2 1 1 1 1 1 0 0 -0 -0 -0 -0 -0 -0 -0 -0 0 0 -0 -0 -0 -0 -0 -0 -0 -0 -0 -1 1
6 6 5 5 4 4 3 3 3 2 2 2 2 1 1 1 1 0 -0 -0 -1 -1 -1 -1 -1 -1 -1 -1 -1 -1 -1 -1 -1 -1 -1 -1 -1 -1 -1 -0 -1 -1 -1
6 6 5 4 4 3 3 2 2 2 1 1 1 0 -0 -0 -1 -1 -1 -1 -1 -1 -2 -2 -2 -2 -2 -2 -1 -1 -1 -1 -1 -1 -1 -1 -1 -1 -1 -1 -1 -0 -1
4 4 4 4 3 2 2 2 1 1 1 0 0 -0 -1 -1 -2 -2 -2 -2 -2 -3 -3 -2 -2 -2 -2 -2 -2 -2 -2 -2 -1 -1 -1 -1 -1 -1 -1 -1 -1 -1 -1
3 3 3 3 2 2 1 1 0 0 -0 -1 -1 -2 -2 -2 -3 -3 -3 -3 -3 -3 -3 -3 -3 -3 -3 -3 -2 -2 -2 -2 -1 -1 -1 -1 -1 -1 -1 -1 -1 -1 -1
2 2 2 2 1 1 0 0 -1 -1 -1 -2 -2 -2 -3 -3 -3 -3 -4 -4 -4 -4 -4 -4 -4 -4 -3 -3 -3 -2 -2 -2 -2 -1 -1 -2 -2 -2 -2 -2 -2 -2 -2
2 1 0 0 0 0 -0 -1 -1 -2 -2 -3 -3 -3 -4 -4 -4 -4 -5 -5 -5 -5 -5 -5 -4 -4 -4 -3 -3 -3 -2 -2 -2 -2 -2 -2 -2 -3 -3 -3 -3 -4 -5
2 2 1 -0 -0 -1 -1 -2 -2 -3 -3 -3 -4 -4 -5 -5 -5 -5 -5 -5 -5 -5 -5 -5 -5 -4 -4 -4 -4 -3 -3 -3 -3 -3 -3 -3 -3 -4 -4 -5 -6 -7 -8
2 1 1 1 1 -0 -1 -2 -3 -3 -4 -4 -4 -5 -5 -6 -6 -6 -6 -6 -6 -6 -6 -5 -5 -5 -4 -4 -4 -4 -3 -3 -3 -3 -4 -4 -5 -5 -6 -7 -8 -9 -9
0 0 0 0 -0 -1 -2 -3 -3 -4 -4 -4 -5 -6 -6 -6 -7 -7 -7 -7 -7 -6 -6 -6 -5 -5 -5 -5 -5 -5 -4 -4 -4 -5 -5 -6 -6 -8 -9 -9 -10 -10 -10
-0 -0 -1 -1 -1 -1 -2 -4 -4 -4 -5 -5 -6 -6 -7 -8 -8 -8 -8 -7 -7 -7 -6 -6 -6 -6 -6 -6 -6 -6 -6 -6 -6 -6 -7 -9 -10 -10 -11 -11 -11 -10 -10
-1 -1 -1 -2 -2 -3 -4 -5 -5 -5 -6 -7 -8 -8 -8 -8 -8 -8 -8 -8 -7 -7 -7 -6 -7 -7 -7 -8 -8 -8 -8 -8 -8 -9 -10 -11 -11 -11 -11 -12 -11 -11 -10
-1 -2 -2 -3 -3 -4 -4 -5 -5 -7 -8 -8 -9 -9 -8 -9 -9 -9 -9 -8 -7 -7 -7 -7 -8 -8 -9 -10 -10 -11 -11 -11 -11 -11 -11 -11 -11 -11 -12 -12 -12 -11 -11
-3 -3 -4 -4 -4 -5 -5 -6 -7 -7 -7 -7 -8 -9 -9 -10 -10 -9 -8 -8 -8 -8 -9 -9 -9 -10 -10 -11 -11 -12 -12 -11 -12 -12 -11 -11 -12 -12 -11 -12 -12 -12 -12
-4 -5 -5 -5 -5 -6 -7 -7 -7 -7 -7 -8 -9 -9 -10 -10 -9 -9 -8 -9 -9 -10 -10 -10 -10 -11 -12 -12 -12 -12 -12 -12 -12 -12 -12 -12 -12 -12 -12 -12 -12 -12 -12
-5 -5 -6 -6 -6 -7 -7 -7 -7 -8 -8 -9 -9 -9 -10 -9 -9 -9 -10 -10 -10 -11 -11 -11 -12 -12 -12 -12 -12 -12 -12 -12 -12 -12 -12 -12 -13 -13 -13 -13 -13 -13 -13
-6 -6 -6 -7 -7 -7 -7 -8 -8 -9 -9 -8 -9 -9 -10 -10 -10 -10 -11 -11 -11 -12 -12 -12 -13 -13 -12 -13 -13 -13 -13 -13 -13 -13 -13 -13 -13 -13 -13 -13 -13 -13 -13
-7 -7 -7 -8 -8 -8 -8 -9 -9 -9 -9 -9 -10 -10 -10 -10 -11 -11 -11 -11 -12 -12 -12 -13 -13 -13 -13 -13 -13 -13 -13 -14 -14 -13 -13 -13 -14 -14 -14 -13 -13 -13 -13
Height
3143 3145 3146 3146 3146 3145 3144 3143 3142 3141 3140 3138 3137 3135 3133 3131 3128 3126 3124 3121 3119 3116 3113 3111 3108 3105 3103 3101 3098 3096 3094 3093 3091 3090 3088 3086 3085 3083 3082 3080 3079 3078 3077
3140 3141 3141 3141 3141 3140 3139 3139 3138 3137 3136 3134 3133 3131 3129 3127 3124 3122 3120 3117 3115 3112 3109 3107 3104 3102 3099 3097 3095 3093 3091 3089 3088 3086 3084 3083 3081 3080 3078 3076 3075 3074 3072
3136 3136 3137 3137 3136 3135 3135 3134 3133 3132 3131 3130 3129 3127 3125 3123 3120 3117 3115 3113 3110 3108 3105 3103 3101 3098 3096 3093 3092 3090 3089 3087 3085 3083 3081 3078 3076 3074 3073 3072 3070 3068 3067
3132 3132 3132 3131 3131 3130 3130 3129 3128 3128 3127 3126 3125 3123 3121 3118 3116 3113 3111 3108 3106 3104 3101 3099 3097 3094 3092 3090 3088 3087 3085 3083 3081 3079 3077 3074 3072 3068 3068 3066 3064 3063 3061
3128 3127 3127 3126 3125 3125 3125 3125 3124 3123 3123 3122 3121 3119 3116 3114 3112 3109 3107 3104 3101 3099 3097 3095 3092 3090 3088 3086 3084 3083 3081 3079 3077 3074 3072 3070 3067 3064 3061 3060 3058 3055 3054
3122 3121 3121 3121 3121 3121 3121 3120 3120 3119 3119 3117 3116 3114 3111 3109 3106 3104 3101 3099 3096 3094 3093 3091 3088 3086 3084 3082 3080 3078 3077 3074 3072 3070 3067 3064 3062 3059 3055 3053 3053 3048 3048
3116 3117 3117 3117 3117 3116 3116 3116 3116 3115 3114 3112 3110 3108 3106 3103 3101 3098 3096 3094 3092 3090 3088 3085 3083 3081 3079 3077 3074 3073 3072 3069 3067 3064 3061 3058 3056 3053 3049 3045 3045 3041 3041
3112 3112 3112 3113 3113 3113 3112 3112 3111 3110 3109 3107 3105 3102 3100 3098 3096 3094 3091 3089 3087 3085 3083 3080 3078 3076 3074 3072 3069 3067 3066 3063 3061 3058 3055 3052 3049 3046 3043 3040 3036 3033 3032
3108 3109 3109 3109 3109 3108 3108 3107 3106 3105 3103 3101 3099 3097 3095 3093 3090 3088 3086 3084 3082 3080 3078 3075 3073 3071 3068 3066 3063 3061 3058 3056 3053 3051 3048 3045 3042 3038 3035 3033 3029 3024 3020
3106 3105 3105 3104 3104 3104 3103 3102 3101 3100 3098 3097 3094 3091 3089 3087 3084 3082 3080 3079 3077 3075 3073 3070 3068 3064 3061 3058 3055 3053 3050 3047 3045 3041 3039 3037 3033 3030 3027 3024 3021 3017 3012
3103 3102 3101 3100 3099 3098 3098 3097 3096 3095 3093 3091 3088 3085 3083 3081 3079 3077 3075 3073 3071 3069 3067 3064 3062 3058 3055 3051 3048 3044 3041 3038 3035 3033 3029 3027 3024 3020 3018 3014 3010 3006 3003
3098 3098 3096 3095 3094 3093 3093 3092 3091 3089 3087 3085 3082 3080 3077 3075 3073 3071 3070 3068 3065 3063 3060 3057 3054 3051 3047 3043 3039 3036 3032 3029 3026 3024 3020 3016 3013 3010 3007 3003 2998 2994 2990
3093 3092 3091 3089 3088 3088 3087 3086 3084 3083 3081 3079 3076 3074 3072 3070 3068 3067 3064 3062 3059 3056 3053 3050 3046 3043 3039 3035 3031 3027 3023 3020 3017 3013 3010 3006 3002 2998 2994 2989 2985 2981 2977
3085 3084 3084 3083 3082 3081 3080 3080 3079 3077 3075 3073 3070 3068 3066 3064 3062 3060 3058 3055 3052 3049 3045 3042 3038 3035 3032 3027 3022 3018 3014 3010 3006 3003 2998 2994 2990 2985 2981 2976 2972 2968 2962
3079 3078 3078 3077 3077 3077 3076 3074 3072 3070 3068 3066 3064 3062 3060 3058 3056 3054 3051 3048 3045 3041 3038 3035 3031 3027 3024 3018 3013 3008 3003 2998 2994 2990 2984 2980 2976 2972 2968 2962 2958 2953 2947
3076 3074 3072 3071 3071 3070 3069 3068 3066 3064 3062 3060 3057 3056 3054 3052 3050 3047 3044 3040 3037 3034 3031 3027 3023 3018 3014 3008 3002 2996 2990 2986 2980 2976 2971 2967 2962 2958 2954 2950 2945 2939 2933
3071 3069 3067 3065 3062 3060 3059 3058 3058 3057 3055 3053 3051 3049 3047 3045 3042 3039 3036 3032 3029 3026 3022 3018 3012 3007 3003 2997 2991 2984 2979 2973 2968 2963 2958 2954 2949 2944 2939 2935 2930 2926 2922
3066 3063 3060 3058 3055 3053 3052 3051 3050 3049 3047 3045 3043 3042 3040 3037 3034 3031 3028 3024 3020 3016 3012 3007 3001 2995 2990 2984 2979 2972 2967 2961 2956 2950 2944 2938 2933 2928 2923 2918 2913 2911 2909
3061 3058 3055 3052 3049 3046 3045 3044 3043 3042 3040 3038 3036 3033 3031 3027 3024 3022 3019 3016 3011 3006 3001 2997 2991 2985 2979 2973 2967 2960 2954 2948 2942 2936 2931 2925 2920 2915 2911 2905 2900 2897 2896
3053 3050 3047 3044 3042 3040 3038 3037 3035 3034 3032 3029 3027 3024 3020 3018 3016 3013 3011 3006 3002 2997 2991 2985 2979 2972 2966 2960 2954 2947 2941 2935 2929 2923 2919 2915 2910 2905 2901 2895 2889 2884 2884
3046 3042 3039 3037 3035 3033 3032 3030 3028 3026 3023 3021 3018 3014 3013 3010 3008 3004 3001 2996 2991 2985 2979 2972 2967 2961 2955 2950 2944 2938 2930 2924 2917 2911 2907 2904 2899 2894 2890 2885 2880 2874 2870
3035 3033 3030 3029 3028 3027 3025 3022 3020 3016 3014 3011 3009 3008 3005 3003 2999 2995 2991 2985 2979 2973 2967 2961 2956 2951 2945 2940 2934 2928 2922 2916 2908 2902 2896 2891 2887 2882 2878 2873 2869 2864 2859
3027 3025 3024 3021 3020 3019 3017 3015 3011 3008 3006 3005 3002 3000 2998 2995 2990 2985 2980 2974 2969 2962 2957 2951 2945 2940 2935 2932 2926 2920 2913 2907 2899 2892 2886 2880 2875 2871 2866 2862 2858 2853 2849
3020 3018 3016 3014 3013 3011 3009 3007 3004 3003 3000 2998 2996 2992 2989 2985 2980 2974 2969 2963 2959 2952 2947 2942 2935 2930 2926 2922 2915 2909 2903 2897 2890 2882 2876 2870 2864 2859 2855 2851 2847 2843 2839
3014 3012 3010 3009 3006 3005 3003 3001 2997 2995 2993 2990 2986 2982 2978 2973 2968 2963 2959 2955 2951 2944 2938 2934 2927 2921 2916 2912 2906 2898 2891 2884 2878 2870 2865 2859 2854 2849 2845 2842 2838 2833 2830
3008 3006 3005 3003 3000 2998 2996 2994 2991 2988 2984 2980 2977 2972 2967 2961 2957 2952 2949 2947 2941 2937 2933 2926 2919 2913 2907 2901 2895 2888 2881 2875 2868 2861 2855 2849 2844 2840 2836 2832 2828 2825 2822
Wind_Speed
22 20 19 19 20 22 23 24 24 23 23 24 25 24 24 24 26 27 27 27 26 25 23 22 21 21 21 21 20 19 18 18 18 18 18 18 18 19 19 19 20 21 22
20 20 20 21 22 24 25 26 25 24 24 25 23 24 24 26 28 27 26 25 25 24 23 22 21 20 20 20 20 19 19 18 19 20 20 21 22 17 20 21 21 22 22
21 22 22 24 25 27 28 27 25 24 24 23 23 24 25 26 26 25 25 24 24 24 23 22 22 21 20 20 21 21 21 21 21 21 22 23 22 22 20 20 21 22 23
23 25 24 27 28 29 27 25 24 24 23 21 23 24 24 24 25 25 27 27 25 24 23 23 22 21 21 20 21 22 23 22 22 22 21 23 25 26 24 24 22 22 25
25 27 28 28 27 25 24 23 23 22 21 21 21 22 24 26 27 28 27 26 25 24 23 22 22 21 20 20 20 21 22 23 24 25 26 26 26 27 29 26 26 29 28
28 28 28 26 24 23 22 22 21 20 20 21 23 24 25 26 26 26 26 26 25 24 23 22 22 21 21 21 21 22 25 27 27 27 27 27 29 29 31 30 28 31 28
27 27 25 23 22 21 21 20 20 20 22 23 24 26 27 27 27 27 27 26 26 25 24 23 22 23 23 24 23 24 26 27 27 27 27 28 28 29 30 32 30 31 28
23 23 21 21 20 20 21 20 21 21 23 24 25 26 26 26 27 26 26 25 24 24 24 23 23 24 24 24 24 24 27 28 29 29 29 30 30 30 30 32 34 34 32
17 18 18 19 21 22 22 22 22 22 23 24 26 26 26 26 26 25 24 23 23 22 22 22 22 23 24 26 28 29 31 32 31 30 29 30 30 32 33 35 36 39 41
12 15 17 20 22 23 23 23 23 23 23 26 27 27 26 25 24 22 21 20 20 20 21 23 25 27 29 31 33 33 34 34 32 32 33 33 35 36 37 38 40 42 45
16 18 20 22 23 24 25 24 24 24 26 27 27 25 24 22 21 19 19 20 22 24 26 28 30 32 33 34 35 35 36 36 36 37 39 38 39 41 41 43 45 45 46
22 21 22 24 26 26 26 26 25 26 27 28 26 24 23 22 21 21 22 23 25 28 31 32 34 34 34 34 36 36 37 38 39 39 41 42 43 44 44 44 46 48 48
25 24 24 25 27 27 27 28 29 28 28 28 26 25 23 23 23 23 25 27 30 32 33 33 32 31 32 33 36 38 39 40 41 42 43 44 45 46 46 47 48 49 51
29 29 28 28 29 29 30 30 30 29 28 27 27 26 25 25 25 27 28 30 31 31 31 30 31 32 34 37 39 41 43 44 45 45 46 46 46 47 48 49 51 52 54
25 27 28 29 30 30 31 31 31 30 29 28 29 27 26 26 27 29 31 31 32 32 32 33 34 36 39 43 45 46 47 47 47 47 47 48 48 48 49 51 51 52 54
20 21 24 28 30 31 32 32 31 30 30 30 28 27 27 28 29 31 32 34 34 35 35 37 39 42 44 46 47 48 49 48 49 49 49 49 49 50 50 50 50 50 50
22 23 23 24 28 32 33 33 33 31 30 30 28 28 28 30 31 32 34 35 36 37 38 41 44 47 49 49 48 48 49 49 49 49 50 51 51 52 51 50 49 48 48
22 22 24 26 27 31 32 32 32 31 31 30 29 29 31 32 32 33 34 36 38 39 42 44 48 53 55 53 50 48 48 49 50 51 53 56 55 53 50 50 50 49 48
27 24 24 26 27 29 30 31 31 31 31 30 30 31 33 35 38 33 32 37 40 43 46 50 54 54 51 49 47 47 48 50 52 53 52 51 50 48 44 46 47 47 45
29 28 26 24 25 26 27 29 30 30 30 30 32 35 40 39 30 30 36 39 43 47 53 54 52 49 47 45 45 46 48 50 51 51 49 45 45 45 43 43 45 47 45
35 33 30 27 26 26 28 30 31 31 32 34 36 40 35 26 30 36 40 45 50 53 54 52 48 45 43 42 42 42 45 46 48 48 47 44 43 43 42 42 44 44 45
36 31 28 27 27 28 29 30 31 35 37 41 40 28 25 29 35 40 45 49 52 51 48 45 43 41 41 40 41 43 44 45 47 46 45 45 44 43 41 40 40 40 39
31 29 29 28 28 29 30 33 37 39 40 35 27 26 30 34 40 45 48 49 46 44 43 41 42 42 40 40 40 42 43 44 45 44 44 43 41 39 37 34 34 37 35
26 26 27 28 30 32 34 37 39 34 29 27 28 31 36 41 45 47 45 44 41 40 39 39 41 41 41 40 43 45 46 44 42 43 43 42 40 37 36 34 33 35 32
24 25 27 30 31 32 31 29 28 27 27 31 33 38 43 46 47 43 41 41 37 35 37 37 41 44 45 43 45 47 48 45 45 45 45 43 40 37 36 33 33 33 29
21 23 24 25 24 24 23 20 25 31 34 38 42 46 48 46 42 41 41 38 37 36 36 38 41 43 45 46 46 48 46 44 44 44 43 40 37 37 38 35 33 28 28
Wind_Direction
244 251 255 261 265 274 282 287 291 292 291 291 294 296 298 299 300 300 303 304 305 307 309 309 310 310 312 311 307 304 301 299 295 293 295 295 297 294 292 290 288 287 287
250 252 256 261 267 275 280 284 287 288 287 289 292 295 297 299 300 301 304 305 305 307 308 307 306 306 307 306 305 303 301 299 300 301 301 301 298 294 294 295 294 293 292
254 256 259 265 269 274 278 282 283 282 283 287 291 294 296 297 298 301 304 305 305 306 305 304 303 304 303 303 303 302 301 302 303 305 306 305 302 301 297 295 295 293 292
256 263 264 267 269 274 276 276 276 278 282 286 291 293 296 296 297 300 302 303 303 303 303 304 304 303 302 302 302 303 303 303 303 304 304 305 304 302 298 300 294 293 295
260 262 264 267 269 271 271 271 273 277 283 288 290 294 295 296 295 296 298 299 301 302 303 303 302 302 302 302 302 301 299 299 302 303 303 301 299 299 299 298 297 299 295
259 261 264 266 269 269 268 269 273 280 284 288 292 293 294 295 294 294 294 295 296 297 298 300 301 301 301 299 300 300 299 299 300 300 300 300 299 299 298 296 296 295 296
257 261 264 267 267 267 267 272 277 281 286 291 293 294 294 294 294 293 293 293 294 296 297 298 299 298 297 297 299 299 297 298 299 299 300 299 298 298 298 299 299 298 298
263 264 266 267 268 270 272 274 277 282 288 294 296 297 298 297 296 295 295 294 295 296 297 296 296 296 297 299 301 300 299 298 298 298 297 296 297 296 296 297 297 296 296
270 271 272 273 273 271 271 273 278 284 290 297 302 301 297 294 292 292 291 291 292 293 293 296 299 301 301 302 302 301 299 297 296 295 295 295 295 294 294 294 295 297 299
286 283 279 275 273 271 271 274 279 285 294 302 302 298 294 291 290 289 289 290 292 293 295 297 300 301 302 302 301 299 296 295 294 294 293 293 293 292 292 293 294 294 295
295 287 282 278 273 271 270 274 281 287 295 301 302 300 294 290 287 287 289 292 294 296 299 301 301 301 301 300 299 298 297 296 295 294 294 295 294 294 294 294 294 294 294
291 288 283 277 272 270 272 276 279 287 293 300 301 294 288 285 285 287 290 293 297 301 302 303 303 302 302 302 301 300 299 299 298 297 297 297 295 294 294 293 293 293 293
288 283 280 277 274 272 273 275 280 287 293 299 299 293 286 284 286 290 295 298 301 303 304 304 304 305 307 306 305 305 304 303 302 300 298 296 295 295 294 293 292 291 290
277 275 273 272 271 269 272 277 282 288 293 296 297 290 284 284 288 293 297 301 302 303 303 304 306 308 309 309 308 306 305 303 301 299 298 297 296 295 294 293 292 292 290
297 283 273 275 276 276 278 280 281 286 291 293 293 285 282 286 291 296 299 301 301 300 300 301 303 306 310 310 309 307 306 305 302 300 298 297 296 295 294 293 292 291 290
308 302 287 274 274 276 278 280 281 285 288 291 286 282 284 289 295 298 299 300 301 302 302 304 305 308 310 311 311 307 305 303 303 301 299 298 297 295 294 292 291 290 291
317 312 307 297 283 274 271 274 276 282 284 286 282 283 287 291 294 296 299 301 303 304 304 307 310 313 315 314 311 309 305 302 301 300 298 296 296 295 294 292 290 288 288
306 303 299 294 287 275 271 271 273 277 280 280 280 283 286 289 291 294 299 302 303 307 309 311 312 314 314 312 310 307 304 302 302 301 300 299 298 298 298 295 292 291 291
309 307 301 294 287 279 270 269 272 275 278 277 278 280 282 282 284 292 298 304 307 309 311 309 308 309 310 309 308 306 305 303 302 301 302 302 303 302 297 295 295 295 296
314 311 305 294 286 277 270 269 270 273 272 272 273 275 276 289 295 304 306 307 309 305 309 311 311 311 310 311 312 312 309 307 308 305 304 305 303 300 294 294 296 298 300
304 302 298 292 284 278 273 271 271 270 269 272 275 276 293 299 309 307 308 306 309 310 311 311 312 311 312 312 311 313 315 315 312 308 306 305 300 298 296 293 297 299 300
301 296 288 286 283 277 272 270 267 269 272 275 283 291 297 301 301 304 308 310 311 312 312 311 311 312 314 317 317 313 313 315 311 308 305 304 300 298 297 296 297 298 296
296 292 286 282 279 276 273 271 274 276 282 295 288 297 303 306 306 307 309 310 313 312 311 312 313 316 317 320 318 316 313 313 310 307 305 305 302 299 299 299 298 301 295
297 292 286 282 280 280 279 280 288 296 291 291 297 303 305 306 308 308 309 311 313 311 312 315 316 317 317 318 317 319 315 312 309 306 308 308 306 306 307 301 301 301 292
300 295 291 290 292 291 299 301 294 295 297 298 304 308 306 306 307 307 308 310 311 310 310 313 312 314 315 315 314 317 317 314 311 309 309 308 305 306 308 304 304 302 293
304 305 303 302 302 299 299 300 300 300 304 309 308 307 306 305 304 304 305 307 307 307 307 309 310 310 311 313 315 317 315 311 307 307 308 306 304 304 306 303 304 299 295